FW3048 Weather Reports


time (UTC)temp
C
wind
direction
speed
KPH
gust
KPH
rain 1hr
cm
rain 24hr
cm
rain mn
cm
humidity
%
barometer
mb
20260508073038 11 175 0.0 11.3 0.00 0.00 0.00 55 1018.3
20260508053037 8 137 0.0 0.0 0.00 0.00 0.00 65 1017.5
20260508043038 6 130 0.0 0.0 0.00 0.00 0.00 70 1017.3
20260508033036 6 130 0.0 0.0 0.00 0.00 0.00 67 1017.1
20260508023036 6 130 0.0 0.0 0.00 0.00 0.00 64 1017.2
20260508003036 9 130 0.0 1.6 0.00 0.00 0.00 61 1017.1
20260507233035 10 131 0.0 4.8 0.00 0.00 0.00 59 1017.2
20260507223035 10 144 1.6 4.8 0.00 0.00 0.00 57 1017.1
20260507213035 10 133 1.6 4.8 0.00 0.00 0.00 55 1017.1
20260507203035 10 159 0.0 3.2 0.00 0.00 0.00 57 1016.7
20260507193035 11 161 0.0 8.0 0.00 0.00 0.00 55 1016.2
20260507183034 12 247 1.6 6.4 0.00 0.00 0.00 46 1016.2
20260507173034 13 140 1.6 8.0 0.00 0.00 0.00 43 1015.8
20260507163033 13 137 4.8 11.3 0.00 0.00 0.00 40 1015.7
20260507153033 14 144 3.2 9.7 0.00 0.00 0.00 38 1015.9
20260507143032 15 243 3.2 14.5 0.00 0.00 0.00 40 1016.3
20260507133032 14 99 3.2 17.7 0.00 0.00 0.00 42 1016.9
20260507123031 13 118 3.2 16.1 0.00 0.00 0.00 46 1016.9
20260507113030 11 141 1.6 11.3 0.00 0.00 0.00 51 1017.4
20260507103031 10 123 4.8 11.3 0.00 0.00 0.00 53 1017.6
20260507093031 8 147 3.2 11.3 0.00 0.00 0.00 56 1017.5